Flag for U.S.A. Weather past 2 weeks in Chesapeake, Virginia, U.S.A.

Now
73 °F

Sunny.


Feels Like: 76 °F
Forecast: 64 / 81 °F
Wind: 7 mph from North

Location: Chesapeake Municipal Airport

Current Time: Jul 29, 2014 at 9:30:15 AM

Latest Report: Jul 29, 2014 at 8:55 AM


Visibility: 5 mi

Pressure: 29.92 "Hg

Humidity: 69%

Dew point: 63 °F

Location of ChesapeakeLocation

Historic Weather in Chesapeake — Graph

°F

Chesapeake temperature yesterday

Maximum temperature yesterday: 88 °F (at 11:55 AM)
Minimum temperature yesterday: 70 °F (at 11:15 PM)
Average temperature yesterday: 81 °F

Past Weeks' High & Low Weather Summary

 TemperatureHumidityPressure
High91 °F (Jul 14, 1:55 PM)100% (Jul 15, 5:15 PM)30.21 "Hg (Jul 15, 5:15 PM)
Low61 °F (Jul 18, 4:55 AM)37% (Jul 18, 1:35 PM)29.67 "Hg (Jul 28, 3:55 AM)
Average77 °F78%29.98 "Hg
* Reported Jul 14 8:15 AM — Jul 29 8:35 AM, Chesapeake, Weather by CustomWeather, © 2014

Note: Actual official high and low records may vary slightly from our data, if they occured in-between our weather recording intervals... More about our weather records

Advertising

Chesapeake weather history for previous 24 hours

 ConditionsComfort  
Time TempWeatherWind HumidityBarometerVisibility
8:35 AM
Jul 29
73 °FSunny.7 mph69%29.92 "Hg5 mi
8:15 AM72 °FSunny.6 mph73%29.92 "Hg7 mi
7:55 AM70 °FSunny.3 mph78%29.92 "Hg7 mi
7:35 AM66 °FFog.No wind88%29.91 "Hg5 mi
7:15 AM64 °FFog.No wind88%29.91 "Hg5 mi
6:55 AM64 °FFog.No wind88%29.91 "Hg5 mi
6:15 AM61 °FFog.No wind100%29.90 "Hg5 mi
5:55 AM63 °FClear.No wind94%29.89 "Hg7 mi
5:35 AM64 °FClear.No wind88%29.89 "Hg7 mi
5:15 AM63 °FClear.No wind94%29.88 "Hg7 mi
4:55 AM64 °FClear.No wind88%29.88 "Hg7 mi
4:35 AM64 °FClear.No wind83%29.87 "Hg7 mi
4:15 AM66 °FClear.No wind78%29.86 "Hg7 mi
3:55 AM70 °FClear.3 mph69%29.85 "Hg7 mi
3:35 AM72 °FClear.3 mph61%29.85 "Hg7 mi
3:15 AM66 °FClear.No wind83%29.85 "Hg10 mi
2:55 AM70 °FClear.No wind73%29.85 "Hg7 mi
2:35 AM70 °FClear.3 mph73%29.84 "Hg7 mi
2:15 AM70 °FClear.No wind73%29.84 "Hg7 mi
1:55 AM72 °FClear.No wind69%29.84 "Hg7 mi
1:35 AM72 °FClear.No wind69%29.83 "Hg7 mi
1:15 AM72 °FClear.No wind69%29.83 "Hg7 mi
12:55 AM72 °FClear.No wind69%29.83 "Hg7 mi
12:35 AM72 °FClear.No wind69%29.83 "Hg7 mi
12:15 AM70 °FClear.No wind73%29.82 "Hg7 mi
11:55 PM
Jul 28
70 °FClear.No wind73%29.82 "Hg10 mi
11:35 PM70 °FClear.3 mph73%29.81 "Hg7 mi
11:15 PM70 °FClear.3 mph73%29.81 "Hg7 mi
10:55 PM72 °FClear.5 mph69%29.81 "Hg10 mi
10:35 PM72 °FClear.7 mph69%29.80 "Hg7 mi
10:15 PM72 °FClear.6 mph73%29.81 "Hg7 mi
9:55 PM72 °FClear.5 mph73%29.81 "Hg7 mi
9:15 PM73 °FClear.5 mph69%29.81 "Hg7 mi
8:55 PM79 °FSunny.8 mph54%29.80 "Hg10 mi
8:35 PM79 °FSunny.7 mph58%29.80 "Hg10 mi
8:15 PM77 °FSunny.3 mph65%29.79 "Hg10 mi
7:55 PM81 °FSunny.5 mph54%29.79 "Hg10 mi
7:35 PM82 °FSunny.7 mph51%29.78 "Hg7 mi
7:15 PM84 °FScattered clouds.9 mph45%29.77 "Hg7 mi
6:55 PM84 °FPartly sunny.8 mph48%29.75 "Hg7 mi
6:35 PM84 °FPartly sunny.8 mph51%29.75 "Hg7 mi
6:15 PM84 °FPartly sunny.8 mph51%29.75 "Hg10 mi
5:15 PM88 °FScattered clouds.14 mph43%29.74 "Hg7 mi
4:55 PM88 °FSunny.10 mph46%29.74 "Hg10 mi
4:35 PM86 °FScattered clouds.9 mph46%29.74 "Hg7 mi
4:15 PM88 °FScattered clouds.15 mph43%29.74 "Hg10 mi
3:55 PM88 °FScattered clouds.13 mph46%29.74 "Hg10 mi
3:35 PM86 °FScattered clouds.9 mph49%29.73 "Hg10 mi
3:15 PM88 °FScattered clouds.15 mph43%29.73 "Hg7 mi
2:55 PM88 °FScattered clouds.13 mph46%29.73 "Hg10 mi
2:35 PM86 °FScattered clouds.14 mph49%29.73 "Hg7 mi
2:15 PM88 °FScattered clouds.15 mph46%29.73 "Hg7 mi
1:55 PM86 °FScattered clouds.14 mph46%29.73 "Hg7 mi
1:35 PM88 °FScattered clouds.14 mph46%29.73 "Hg10 mi
1:15 PM86 °FScattered clouds.12 mph49%29.73 "Hg10 mi
12:55 PM88 °FScattered clouds.15 mph49%29.72 "Hg7 mi
12:35 PM88 °FSunny.10 mph49%29.72 "Hg7 mi
12:15 PM88 °FScattered clouds.13 mph49%29.72 "Hg5 mi
11:55 AM88 °FScattered clouds.14 mph49%29.72 "Hg7 mi
11:35 AM84 °FScattered clouds.13 mph62%29.72 "Hg10 mi
11:15 AM86 °FSunny.10 mph59%29.72 "Hg10 mi
10:55 AM84 °FSunny.10 mph62%29.72 "Hg7 mi
10:35 AM84 °FSunny.8 mph62%29.72 "Hg7 mi
10:15 AM84 °FSunny.10 mph58%29.72 "Hg7 mi
9:55 AM84 °FSunny.13 mph58%29.72 "Hg10 mi
9:35 AM82 °FSunny.8 mph62%29.72 "Hg7 mi
9:15 AM82 °FSunny.8 mph66%29.71 "Hg7 mi
Weather by CustomWeather, © 2014

See weather overviewHow to use our weather pages